Ardmore Downtown, OK

9:08 AM CDT on September 26, 2017 (GMT -0500)
Ardmore Downtown

Weather History for K1F0 - March, 2014

Change the Weather History Date:

Monday, March 3, 2014

  Actual Average (KADM) Record (KADM)
Temperature  
Mean Temperature 20 °F -  
Max Temperature 30 °F 57 °F 75 °F (2011)
Min Temperature 10 °F 38 °F 6 °F (2002)
Degree Days  
Heating Degree Days 45    
Moisture  
Dew Point 11 °F    
Average Humidity 66    
Maximum Humidity 79    
Minimum Humidity 51    
Precipitation  
Precipitation 0.00 in - - ()
Sea Level Pressure  
Sea Level Pressure 30.39 in    
Wind  
Wind Speed 7 mph (NNE)    
Max Wind Speed 15 mph    
Max Gust Speed 24 mph    
Visibility 10 miles    
Events Snow    
Averages and records for this station are not official NWS values.
T = Trace of Precipitation, MM = Missing Value Source: NWS Daily Summary

Daily Weather History Graph

Daily Weather History Graph

Search for Another Location

Airport or City:

Trip Planner

Search our weather history database for the weather conditions in past years. The results will help you decide how hot, cold, wet, or windy it might be!

Date:

Astronomy

Mar. 03, 2014 Rise Set
Actual Time 6:54 AM CST 6:26 PM CST
Civil Twilight 6:29 AM CST 6:51 PM CST
Nautical Twilight 6:00 AM CST 7:20 PM CST
Astronomical Twilight 5:31 AM CST 7:49 PM CST
Moon 8:12 AM CST (3/3) 9:20 PM CST (3/3)
Length of Visible Light 12h 22m
Length of Day
11h 31m
Waxing Crescent, 8% of the Moon is Illuminated
Mar 3
Waxing Crescent
Mar 8
First Quarter
Mar 16
Full
Mar 23
Last Quarter
Mar 30
New

Hourly Weather History & Observations

Time (CST) Temp. Windchill Dew Point Humidity Pressure Visibility Wind Dir Wind Speed Gust Speed Precip Events Conditions
12:15 AM 15.8 °F 5.1 °F 10.4 °F 79% 30.37 in 10.0 mi NNE 8.1 mph 17.3 mph N/A Snow Light Snow
12:35 AM 15.8 °F 4.2 °F 10.4 °F 79% 30.40 in 10.0 mi North 9.2 mph 19.6 mph N/A   Unknown
12:55 AM 15.8 °F 5.1 °F 8.6 °F 73% 30.41 in 10.0 mi North 8.1 mph 20.7 mph N/A   Unknown
1:15 AM 15.8 °F 6.1 °F 8.6 °F 73% 30.41 in 10.0 mi North 6.9 mph 18.4 mph N/A   Unknown
1:35 AM 15.8 °F 8.6 °F 8.6 °F 73% 30.40 in 10.0 mi North 4.6 mph - N/A   Unknown
1:55 AM 14.0 °F 2.9 °F 8.6 °F 79% 30.40 in 10.0 mi NNE 8.1 mph 24.2 mph N/A   Unknown
2:15 AM 14.0 °F 0.5 °F 8.6 °F 79% 30.41 in 10.0 mi North 11.5 mph 18.4 mph N/A   Unknown
2:35 AM 14.0 °F 2.9 °F 8.6 °F 79% 30.42 in 10.0 mi North 8.1 mph 16.1 mph N/A   Unknown
2:55 AM 14.0 °F -0.8 °F 8.6 °F 79% 30.41 in 10.0 mi NNE 13.8 mph 24.2 mph N/A   Unknown
3:15 AM 14.0 °F 2.0 °F 8.6 °F 79% 30.41 in 10.0 mi North 9.2 mph 17.3 mph N/A   Unknown
3:35 AM 14.0 °F 3.9 °F 8.6 °F 79% 30.41 in 10.0 mi North 6.9 mph 18.4 mph N/A   Unknown
3:55 AM 14.0 °F 1.2 °F 8.6 °F 79% 30.41 in 10.0 mi North 10.4 mph 18.4 mph N/A   Unknown
4:15 AM 14.0 °F -0.2 °F 6.8 °F 73% 30.41 in 10.0 mi NNE 12.7 mph 23.0 mph N/A   Unknown
4:35 AM 12.2 °F -1.8 °F 6.8 °F 79% 30.41 in 10.0 mi NNE 11.5 mph 18.4 mph N/A   Unknown
4:55 AM 12.2 °F -1.8 °F 5.0 °F 73% 30.42 in 10.0 mi North 11.5 mph - N/A   Unknown
5:15 AM 12.2 °F -0.2 °F 5.0 °F 73% 30.42 in 10.0 mi North 9.2 mph 16.1 mph N/A   Unknown
5:35 AM 12.2 °F 1.7 °F 5.0 °F 73% 30.42 in 10.0 mi North 6.9 mph - N/A   Unknown
5:55 AM 12.2 °F 2.9 °F 5.0 °F 73% 30.44 in 10.0 mi North 5.8 mph - N/A   Unknown
6:15 AM 12.2 °F 2.9 °F 5.0 °F 73% 30.44 in 10.0 mi North 5.8 mph - N/A   Unknown
6:35 AM 10.4 °F -2.4 °F 5.0 °F 79% 30.45 in 10.0 mi North 9.2 mph - N/A   Unknown
6:55 AM 10.4 °F -2.4 °F 5.0 °F 79% 30.45 in 10.0 mi North 9.2 mph - N/A   Unknown
7:15 AM 10.4 °F 2.2 °F 5.0 °F 79% 30.47 in 10.0 mi North 4.6 mph 16.1 mph N/A   Unknown
7:35 AM 12.2 °F -1.0 °F 5.0 °F 73% 30.47 in 10.0 mi North 10.4 mph 16.1 mph N/A   Unknown
7:55 AM 12.2 °F -0.2 °F 5.0 °F 73% 30.46 in 10.0 mi NNE 9.2 mph 19.6 mph N/A   Unknown
8:15 AM 12.2 °F -3.7 °F 5.0 °F 73% 30.46 in 10.0 mi NNE 15.0 mph 21.9 mph N/A   Unknown
8:35 AM 12.2 °F -2.5 °F 5.0 °F 73% 30.46 in 10.0 mi NNE 12.7 mph 21.9 mph N/A   Unknown
8:55 AM 14.0 °F 2.0 °F 5.0 °F 67% 30.47 in 10.0 mi North 9.2 mph 17.3 mph N/A   Unknown
9:15 AM 14.0 °F 1.2 °F 5.0 °F 67% 30.48 in 10.0 mi North 10.4 mph 16.1 mph N/A   Unknown
9:35 AM 14.0 °F 2.0 °F 5.0 °F 67% 30.48 in 10.0 mi North 9.2 mph 16.1 mph N/A   Unknown
9:55 AM 17.6 °F 4.3 °F 6.8 °F 63% 30.49 in 10.0 mi NNE 12.7 mph 18.4 mph N/A   Unknown
10:15 AM 17.6 °F 6.4 °F 6.8 °F 63% 30.48 in 10.0 mi North 9.2 mph - N/A   Unknown
10:35 AM 17.6 °F 5.0 °F 8.6 °F 68% 30.48 in 10.0 mi NNE 11.5 mph - N/A   Unknown
10:55 AM 19.4 °F 11.5 °F 8.6 °F 63% 30.48 in 10.0 mi North 5.8 mph - N/A   Unknown
11:15 AM 19.4 °F 12.8 °F 8.6 °F 63% 30.48 in 10.0 mi North 4.6 mph - N/A   Unknown
11:35 AM 19.4 °F 11.5 °F 10.4 °F 68% 30.48 in 10.0 mi North 5.8 mph - N/A   Unknown
11:55 AM 21.2 °F 10.1 °F 10.4 °F 63% 30.46 in 10.0 mi NNE 10.4 mph 16.1 mph N/A   Unknown
12:15 PM 23.0 °F 13.1 °F 12.2 °F 63% 30.45 in 10.0 mi NNE 9.2 mph - N/A   Unknown
12:35 PM 23.0 °F 13.9 °F 12.2 °F 63% 30.44 in 10.0 mi North 8.1 mph - N/A   Unknown
12:55 PM 23.0 °F 14.7 °F 12.2 °F 63% 30.42 in 10.0 mi North 6.9 mph - N/A   Unknown
1:15 PM 24.8 °F 15.3 °F 12.2 °F 59% 30.41 in 10.0 mi NE 9.2 mph - N/A   Unknown
1:35 PM 26.6 °F 16.8 °F 12.2 °F 55% 30.38 in 10.0 mi NNE 10.4 mph 16.1 mph N/A   Unknown
1:55 PM 26.6 °F 18.2 °F 12.2 °F 55% 30.35 in 10.0 mi NE 8.1 mph 17.3 mph N/A   Unknown
2:15 PM 28.4 °F 19.7 °F 12.2 °F 51% 30.36 in 10.0 mi NNE 9.2 mph 17.3 mph N/A   Unknown
2:35 PM 28.4 °F 19.1 °F 12.2 °F 51% 30.34 in 10.0 mi NE 10.4 mph - N/A   Unknown
2:50 PM 30.2 °F 24.3 °F 14.0 °F 51% 30.35 in 10.0 mi ENE 5.8 mph - N/A   Unknown
3:15 PM 28.4 °F - 12.2 °F 51% 30.35 in 10.0 mi Calm Calm - N/A   Unknown
3:35 PM 28.4 °F 23.3 °F 14.0 °F 55% 30.34 in 10.0 mi NNW 4.6 mph - N/A   Unknown
3:55 PM 30.2 °F 24.3 °F 14.0 °F 51% 30.33 in 10.0 mi NE 5.8 mph - N/A   Unknown
4:15 PM 28.4 °F - 14.0 °F 55% 30.34 in 10.0 mi Calm Calm - N/A   Unknown
4:35 PM 30.2 °F - 14.0 °F 51% 30.34 in 10.0 mi Calm Calm - N/A   Unknown
4:55 PM 30.2 °F 26.7 °F 14.0 °F 51% 30.32 in 10.0 mi NNE 3.5 mph - N/A   Unknown
5:15 PM 30.2 °F - 14.0 °F 51% 30.32 in 10.0 mi Calm Calm - N/A   Unknown
5:35 PM 30.2 °F 26.7 °F 14.0 °F 51% 30.32 in 10.0 mi NNE 3.5 mph - N/A   Unknown
5:55 PM 30.2 °F - 14.0 °F 51% 30.34 in 10.0 mi Calm Calm - N/A   Unknown
6:15 PM 28.4 °F - 14.0 °F 55% 30.35 in 10.0 mi Calm Calm - N/A   Unknown
6:35 PM 28.4 °F 23.3 °F 15.8 °F 59% 30.33 in 10.0 mi ENE 4.6 mph - N/A   Unknown
6:55 PM 28.4 °F 22.2 °F 14.0 °F 55% 30.32 in 10.0 mi NE 5.8 mph - N/A   Unknown
7:15 PM 28.4 °F - 15.8 °F 59% 30.33 in 10.0 mi Calm Calm - N/A   Unknown
7:35 PM 28.4 °F 24.6 °F 15.8 °F 59% 30.31 in 10.0 mi NE 3.5 mph - N/A   Unknown
7:55 PM 28.4 °F 22.2 °F 15.8 °F 59% 30.31 in 10.0 mi NE 5.8 mph - N/A   Unknown
8:15 PM 28.4 °F 22.2 °F 15.8 °F 59% 30.31 in 10.0 mi NE 5.8 mph - N/A   Unknown
8:35 PM 28.4 °F 23.3 °F 15.8 °F 59% 30.31 in 10.0 mi ENE 4.6 mph - N/A   Unknown
8:55 PM 26.6 °F 22.6 °F 15.8 °F 64% 30.32 in 10.0 mi ENE 3.5 mph - N/A   Unknown
9:15 PM 26.6 °F - 15.8 °F 64% 30.32 in 10.0 mi Calm Calm - N/A   Unknown
9:35 PM 26.6 °F - 14.0 °F 59% 30.32 in 10.0 mi Calm Calm - N/A   Unknown
9:55 PM 26.6 °F - 14.0 °F 59% 30.33 in 10.0 mi Calm Calm - N/A   Unknown
10:15 PM 26.6 °F - 15.8 °F 64% 30.33 in 10.0 mi Calm Calm - N/A   Unknown
10:35 PM 26.6 °F - 15.8 °F 64% 30.32 in 10.0 mi Calm Calm - N/A   Unknown
10:55 PM 26.6 °F - 17.6 °F 69% 30.31 in 10.0 mi Calm Calm - N/A   Unknown
11:10 PM 26.6 °F - 17.6 °F 69% 30.31 in 10.0 mi Calm Calm - N/A   Unknown
11:35 PM 26.6 °F - 17.6 °F 69% 30.30 in 10.0 mi Calm Calm - N/A   Unknown
11:55 PM 26.6 °F - 17.6 °F 69% 30.30 in 10.0 mi Calm Calm - N/A   Unknown